Location: Proctor
(47.8934°N, 114.3048°W)
Time: 21:33:51
(UTC+00:00)

Tiros 1 despin weight - Pass Details

Date: 26 June 2024
Orbit: 576 x 620 km, 48.2° (Epoch: 19 July)

Event Time Altitude Azimuth Distance (km) Brightness Sun altitude
Rises 16:40:21 0° 184° (S) 2,860 ? 46.8°
Reaches altitude 10° 16:44:45 10° 144° (SE) 1,973 ? 47.5°
Maximum altitude 16:45:32 10° 133° (SE) 1,949 ? 47.6°
Drops below altitude 10° 16:46:19 10° 123° (ESE) 1,977 ? 47.8°
Sets 16:50:45 0° 84° (E) 2,895 ? 48.5°
